| time (UTC) | temp F | wind direction | speed knots | gust knots | rain 1hr in | rain 24hr in | rain mn in | humidity % | barometer mb |
| 20260509004552 | 76 | 40 | 0.9 | 4.3 | 0.00 | 0.00 | 0.00 | 76 | 1006.8 |
| 20260509003041 | 76 | 59 | 0.9 | 3.5 | 0.00 | 0.00 | 0.00 | 75 | 1006.8 |
| 20260509001537 | 77 | 69 | 0.0 | 3.5 | 0.00 | 0.00 | 0.00 | 75 | 1007.1 |
| 20260509000043 | 77 | 62 | 0.9 | 3.5 | 0.00 | 0.00 | 0.00 | 75 | 1006.9 |
| 20260508234535 | 77 | 68 | 0.9 | 2.6 | 0.00 | 0.00 | 0.00 | 74 | 1006.9 |
| 20260508233036 | 77 | 47 | 0.9 | 4.3 | 0.00 | 0.00 | 0.00 | 75 | 1006.9 |
| 20260508231635 | 77 | 79 | 0.9 | 3.5 | 0.00 | 0.00 | 0.00 | 74 | 1006.9 |
| 20260508230032 | 77 | 48 | 0.9 | 3.5 | 0.00 | 0.00 | 0.00 | 74 | 1007.0 |
| 20260508224554 | 77 | 44 | 1.7 | 4.3 | 0.00 | 0.00 | 0.00 | 74 | 1007.0 |
| 20260508223030 | 76 | 46 | 1.7 | 3.5 | 0.00 | 0.00 | 0.00 | 74 | 1007.1 |
| 20260508221532 | 76 | 32 | 0.9 | 4.3 | 0.00 | 0.00 | 0.00 | 74 | 1007.4 |
| 20260508220031 | 77 | 42 | 1.7 | 5.2 | 0.00 | 0.00 | 0.00 | 74 | 1007.6 |
| 20260508214535 | 76 | 46 | 0.9 | 5.2 | 0.00 | 0.00 | 0.00 | 74 | 1007.7 |
| 20260508213030 | 77 | 60 | 0.9 | 3.5 | 0.00 | 0.00 | 0.00 | 73 | 1007.8 |
| 20260508211524 | 76 | 80 | 0.9 | 2.6 | 0.00 | 0.00 | 0.00 | 72 | 1007.9 |
| 20260508210019 | 77 | 89 | 1.7 | 4.3 | 0.00 | 0.00 | 0.00 | 72 | 1008.2 |
| 20260508204515 | 76 | 53 | 0.9 | 3.5 | 0.00 | 0.00 | 0.00 | 72 | 1008.4 |
| 20260508203014 | 76 | 113 | 0.9 | 4.3 | 0.00 | 0.00 | 0.00 | 72 | 1008.5 |
| 20260508201512 | 76 | 100 | 0.9 | 4.3 | 0.00 | 0.00 | 0.00 | 70 | 1008.5 |
| 20260508200027 | 76 | 88 | 0.9 | 5.2 | 0.00 | 0.00 | 0.00 | 70 | 1008.7 |
| 20260508194512 | 76 | 115 | 1.7 | 6.1 | 0.00 | 0.00 | 0.00 | 70 | 1008.9 |
| 20260508193004 | 75 | 38 | 0.9 | 4.3 | 0.00 | 0.00 | 0.00 | 72 | 1009.0 |
| 20260508191500 | 74 | 112 | 0.9 | 3.5 | 0.00 | 0.00 | 0.00 | 73 | 1009.2 |
| 20260508190057 | 73 | 63 | 0.9 | 3.5 | 0.00 | 0.00 | 0.00 | 73 | 1009.4 |
| 20260508184554 | 72 | 50 | 0.9 | 6.1 | 0.00 | 0.00 | 0.00 | 74 | 1009.5 |
| 20260508183106 | 71 | 32 | 1.7 | 4.3 | 0.00 | 0.00 | 0.00 | 73 | 1010.0 |
| 20260508181604 | 71 | 22 | 1.7 | 3.5 | 0.00 | 0.00 | 0.00 | 73 | 1010.2 |
| 20260508180045 | 71 | 13 | 1.7 | 3.5 | 0.00 | 0.00 | 0.00 | 73 | 1010.4 |
| 20260508174544 | 70 | 348 | 0.0 | 2.6 | 0.00 | 0.00 | 0.00 | 74 | 1010.7 |
| 20260508173041 | 70 | 22 | 1.7 | 6.1 | 0.00 | 0.00 | 0.00 | 73 | 1010.7 |
| 20260508171547 | 69 | 61 | 1.7 | 3.5 | 0.00 | 0.00 | 0.00 | 73 | 1010.8 |
| 20260508170037 | 69 | 40 | 3.5 | 6.1 | 0.00 | 0.00 | 0.00 | 73 | 1010.9 |
| 20260508164536 | 69 | 35 | 1.7 | 4.3 | 0.00 | 0.00 | 0.00 | 74 | 1011.1 |
| 20260508163032 | 68 | 9 | 3.5 | 6.1 | 0.00 | 0.00 | 0.00 | 74 | 1011.1 |
| 20260508161629 | 67 | 38 | 1.7 | 4.3 | 0.00 | 0.00 | 0.00 | 75 | 1011.2 |
| 20260508160033 | 67 | 47 | 3.5 | 0.0 | 6.48 | 0.00 | 0.00 | 75 | 1011.4 |
| 20260508154525 | 66 | 38 | 2.6 | 5.2 | 0.00 | 0.00 | 0.00 | 75 | 1011.7 |
| 20260508150026 | 65 | 36 | 3.5 | 7.0 | 0.00 | 0.00 | 0.00 | 75 | 1012.2 |
| 20260508144536 | 65 | 50 | 1.7 | 7.0 | 0.00 | 0.00 | 0.00 | 75 | 1012.5 |
| 20260508143033 | 65 | 339 | 3.5 | 7.0 | 0.00 | 0.00 | 0.00 | 75 | 1012.2 |
| 20260508141524 | 65 | 44 | 3.5 | 7.8 | 0.00 | 0.00 | 0.00 | 75 | 1012.1 |
| 20260508140020 | 64 | 23 | 4.3 | 7.8 | 0.00 | 0.00 | 0.00 | 75 | 1012.1 |
| 20260508134518 | 64 | 48 | 2.6 | 7.0 | 0.00 | 0.00 | 0.00 | 75 | 1011.9 |
| 20260508133019 | 64 | 35 | 2.6 | 7.0 | 0.00 | 0.00 | 0.00 | 75 | 1012.1 |
| 20260508131517 | 63 | 34 | 1.7 | 6.1 | 0.00 | 0.00 | 0.00 | 75 | 1012.1 |
| 20260508130023 | 63 | 32 | 2.6 | 4.3 | 0.00 | 0.00 | 0.00 | 75 | 1012.1 |
| 20260508124517 | 63 | 30 | 2.6 | 4.3 | 0.00 | 0.00 | 0.00 | 75 | 1012.1 |
| 20260508123018 | 63 | 30 | 2.6 | 5.2 | 0.00 | 0.00 | 0.00 | 75 | 1012.3 |
| 20260508121519 | 63 | 11 | 1.7 | 3.5 | 0.00 | 0.00 | 0.00 | 75 | 1012.5 |
| 20260508120019 | 63 | 21 | 1.7 | 4.3 | 0.00 | 0.00 | 0.00 | 75 | 1012.4 |
| 20260508114526 | 63 | 26 | 2.6 | 5.2 | 0.00 | 0.00 | 0.00 | 74 | 1012.4 |
| 20260508113010 | 63 | 35 | 1.7 | 4.3 | 0.00 | 0.00 | 0.00 | 73 | 1011.6 |
| 20260508111508 | 64 | 44 | 2.6 | 7.0 | 0.00 | 0.00 | 0.00 | 72 | 1012.5 |
| 20260508110006 | 64 | 32 | 1.7 | 5.2 | 0.00 | 0.00 | 0.00 | 70 | 1012.7 |
| 20260508104505 | 64 | 336 | 1.7 | 4.3 | 0.00 | 0.00 | 0.00 | 70 | 1012.1 |
| 20260508103005 | 64 | 42 | 1.7 | 4.3 | 0.00 | 0.00 | 0.00 | 69 | 1012.0 |
| 20260508101504 | 64 | 44 | 0.9 | 4.3 | 0.00 | 0.00 | 0.00 | 69 | 1011.9 |
| 20260508100003 | 64 | 58 | 0.9 | 3.5 | 0.00 | 0.00 | 0.00 | 69 | 1011.3 |
| 20260508094601 | 64 | 40 | 2.6 | 7.0 | 0.00 | 0.00 | 0.00 | 68 | 1012.2 |
| 20260508093100 | 64 | 47 | 3.5 | 6.1 | 0.00 | 0.00 | 0.00 | 68 | 1012.7 |
| 20260508091559 | 64 | 20 | 3.5 | 7.0 | 0.00 | 0.00 | 0.00 | 68 | 1012.2 |
| 20260508084557 | 64 | 355 | 0.0 | 4.3 | 0.00 | 0.00 | 0.00 | 68 | 1012.9 |
| 20260508083057 | 64 | 34 | 2.6 | 4.3 | 0.00 | 0.00 | 0.00 | 67 | 1012.1 |
| 20260508081605 | 64 | 355 | 2.6 | 7.0 | 0.00 | 0.00 | 0.00 | 67 | 1012.1 |
| 20260508080058 | 64 | 34 | 1.7 | 6.1 | 0.00 | 0.00 | 0.00 | 67 | 1012.6 |
| 20260508074556 | 64 | 29 | 2.6 | 6.1 | 0.00 | 0.00 | 0.00 | 67 | 1012.8 |
| 20260508073103 | 64 | 331 | 1.7 | 5.2 | 0.00 | 0.00 | 0.00 | 68 | 1013.3 |
| 20260508071556 | 64 | 25 | 0.9 | 3.5 | 0.00 | 0.00 | 0.00 | 68 | 1012.9 |
| 20260508070100 | 64 | 38 | 2.6 | 6.1 | 0.00 | 0.00 | 0.00 | 67 | 1013.1 |
| 20260508064604 | 64 | 43 | 0.0 | 4.3 | 0.00 | 0.00 | 0.00 | 67 | 1012.9 |
| 20260508063052 | 64 | 32 | 1.7 | 5.2 | 0.00 | 0.00 | 0.00 | 67 | 1013.1 |
| 20260508061558 | 65 | 53 | 1.7 | 7.0 | 0.00 | 0.00 | 0.00 | 67 | 1012.0 |
| 20260508060049 | 65 | 44 | 2.6 | 5.2 | 0.00 | 0.00 | 0.00 | 66 | 1012.9 |
| 20260508054605 | 65 | 360 | 1.7 | 5.2 | 0.00 | 0.00 | 0.00 | 66 | 1014.2 |
| 20260508053042 | 65 | 355 | 1.7 | 4.3 | 0.00 | 0.00 | 0.00 | 66 | 1014.4 |
| 20260508051541 | 65 | 316 | 1.7 | 6.1 | 0.00 | 0.00 | 0.00 | 66 | 1014.6 |
| 20260508050038 | 65 | 30 | 1.7 | 6.1 | 0.00 | 0.00 | 0.00 | 66 | 1013.7 |
| 20260508044531 | 65 | 37 | 1.7 | 5.2 | 0.00 | 0.00 | 0.00 | 66 | 1012.3 |
| 20260508043041 | 65 | 40 | 2.6 | 7.0 | 0.00 | 0.00 | 0.00 | 65 | 1012.2 |
| 20260508041534 | 65 | 38 | 3.5 | 7.8 | 0.00 | 0.00 | 0.00 | 65 | 1012.7 |
| 20260508040030 | 66 | 16 | 3.5 | 8.7 | 0.00 | 0.00 | 0.00 | 64 | 1013.0 |
| 20260508034530 | 66 | 43 | 2.6 | 6.1 | 0.00 | 0.00 | 0.00 | 64 | 1013.4 |
| 20260508033032 | 66 | 19 | 2.6 | 6.1 | 0.00 | 0.00 | 0.00 | 64 | 1013.6 |
| 20260508031528 | 66 | 13 | 3.5 | 7.8 | 0.00 | 0.00 | 0.00 | 65 | 1013.8 |
| 20260508030030 | 66 | 360 | 1.7 | 5.2 | 0.00 | 0.00 | 0.00 | 65 | 1013.6 |
| 20260508024526 | 66 | 14 | 2.6 | 4.3 | 0.00 | 0.00 | 0.00 | 65 | 1013.1 |
| 20260508023026 | 66 | 30 | 0.9 | 5.2 | 0.00 | 0.00 | 0.00 | 65 | 1013.1 |
| 20260508021524 | 66 | 26 | 1.7 | 3.5 | 0.00 | 0.00 | 0.00 | 65 | 1012.9 |
| 20260508020024 | 66 | 28 | 1.7 | 5.2 | 0.00 | 0.00 | 0.00 | 64 | 1012.8 |
| 20260508014523 | 66 | 351 | 2.6 | 6.1 | 0.00 | 0.00 | 0.00 | 64 | 1012.4 |
| 20260508013023 | 67 | 93 | 0.9 | 4.3 | 0.00 | 0.00 | 0.00 | 63 | 1011.7 |
| 20260508011524 | 67 | 62 | 1.7 | 6.1 | 0.00 | 0.00 | 0.00 | 62 | 1011.4 |
| 20260508010028 | 67 | 98 | 1.7 | 5.2 | 0.00 | 0.00 | 0.00 | 62 | 1011.6 |